Home   Weather   Provincetown   Past weeks

Flag for USA Past Weather in Provincetown, Massachusetts, USA — Yesterday and Last 2 Weeks

61 °F


Feels Like: 61 °F
Forecast: 48 / 64 °F
Wind: 7 mph from Northwest

Location: Provincetown Weather Reporting Station

Current Time: Oct 22, 2016 at 7:51:57 AM

Latest Report: Oct 22, 2016 at 6:56 AM

Visibility: 0 mi

Pressure: 29.25 "Hg

Humidity: 97%

Dew Point: 60 °F

Location of ProvincetownLocation

Past Weather in Provincetown — Graph


Provincetown Temperature Yesterday

Maximum temperature yesterday: 73 °F (at 12:56 PM)
Minimum temperature yesterday: 61 °F (at 1:59 AM)
Average temperature yesterday: 66 °F

High & Low Weather Summary for the Past Weeks

High75 °F (Oct 19, 2:56 PM)100% (Oct 7, 7:56 AM)30.48 "Hg (Oct 7, 7:56 AM)
Low37 °F (Oct 12, 12:56 AM)44% (Oct 17, 2:56 PM)29.27 "Hg (Oct 22, 4:56 AM)
Average58 °F81%30.11 "Hg
* Reported Oct 7 6:03 AM — Oct 22 5:53 AM, Provincetown, Weather by CustomWeather, © 2016

Note: Actual official high and low records may vary slightly from our data, if they occured in-between our weather recording intervals... More about our weather records


Provincetown Weather History for the Previous 24 Hours

Scroll right to see more
Time TempWeatherWind HumidityBarometerVisibility
5:53 AM
Sat, Oct 22
63 °FFog.6 mph100%29.27 "Hg1 mi
4:56 AM63 °FFog.3 mph97%29.27 "Hg1 mi
3:56 AM64 °FFog.7 mph100%29.28 "Hg1 mi
2:56 AM62 °FFog.No wind100%29.31 "Hg1 mi
1:56 AM61 °FFog.No wind100%29.33 "Hg2 mi
12:56 AM65 °FFog.5 mph100%29.36 "Hg1 mi
11:56 PM
Fri, Oct 21
66 °FFog.9 mph96%29.39 "Hg1 mi
10:56 PM66 °FLow clouds.10 mph96%29.41 "Hg10 mi
9:56 PM66 °FLow clouds.14 mph100%29.46 "Hg7 mi
8:56 PM67 °FFog.12 mph97%29.48 "Hg5 mi
7:56 PM66 °FLow clouds.15 mph96%29.52 "Hg8 mi
6:56 PM65 °FLight rain. Fog.13 mph97%29.56 "Hg4 mi
5:56 PM67 °FMostly cloudy.13 mph93%29.59 "Hg10 mi
4:56 PM67 °FLight rain. Mostly cloudy.8 mph93%29.63 "Hg10 mi
3:56 PM69 °FLight rain. Broken clouds.12 mph87%29.67 "Hg10 mi
2:56 PM73 °FPartly sunny.14 mph79%29.70 "Hg10 mi
12:56 PM73 °FBroken clouds.13 mph79%29.78 "Hg10 mi
11:56 AM72 °FPartly sunny.14 mph81%29.82 "Hg10 mi
10:56 AM72 °FSunny.12 mph81%29.85 "Hg10 mi
9:56 AM68 °FSunny.9 mph90%29.87 "Hg10 mi
8:56 AM66 °FPassing clouds.9 mph96%29.90 "Hg10 mi
7:56 AM63 °FFog.9 mph100%29.92 "Hg0 mi
Weather by CustomWeather, © 2016

See weather overviewHow to use our weather pages